| time (UTC) | temp C | wind direction | speed KPH | gust KPH | rain 1hr cm | rain 24hr cm | rain mn cm | humidity % | barometer mb |
| 20260906131204 | 22 | 298 | 0.0 | 0.0 | 0.00 | 1.19 | 0.00 | 96 | 1013.8 |
| 20260906130204 | 22 | 298 | 0.0 | 0.0 | 0.00 | 1.19 | 0.00 | 96 | 1013.8 |
| 20260906124204 | 22 | 298 | 0.0 | 0.0 | 0.00 | 1.19 | 0.00 | 96 | 1013.7 |
| 20260906121204 | 21 | 298 | 0.0 | 0.0 | 0.00 | 1.19 | 0.00 | 96 | 1013.2 |
| 20260906114204 | 21 | 298 | 0.0 | 0.0 | 0.00 | 1.19 | 0.00 | 95 | 1013.0 |
| 20260906113204 | 21 | 298 | 0.0 | 0.0 | 0.00 | 1.19 | 0.00 | 95 | 1012.9 |
| 20260906111204 | 21 | 298 | 0.0 | 0.0 | 0.00 | 1.19 | 0.00 | 95 | 1012.9 |
| 20260906110203 | 21 | 298 | 0.0 | 0.0 | 0.00 | 1.19 | 0.00 | 95 | 1013.1 |
| 20260906104203 | 22 | 298 | 0.0 | 0.0 | 0.00 | 1.19 | 0.00 | 96 | 1013.0 |
| 20260906103204 | 21 | 298 | 0.0 | 0.0 | 0.00 | 1.19 | 0.00 | 95 | 1012.8 |
| 20260906101204 | 21 | 298 | 0.0 | 0.0 | 0.00 | 1.19 | 0.00 | 95 | 1012.9 |
| 20260906100205 | 21 | 298 | 0.0 | 0.0 | 0.00 | 1.19 | 0.00 | 95 | 1013.0 |
| 20260906094204 | 21 | 298 | 0.0 | 0.0 | 0.00 | 1.19 | 0.00 | 95 | 1013.0 |
| 20260906091203 | 21 | 298 | 0.0 | 0.0 | 0.00 | 1.19 | 0.00 | 95 | 1012.8 |
| 20260906090203 | 21 | 298 | 0.0 | 0.0 | 0.00 | 1.19 | 0.00 | 95 | 1012.9 |
| 20260906084204 | 21 | 298 | 0.0 | 0.0 | 0.00 | 1.19 | 0.00 | 95 | 1012.9 |
| 20260906083204 | 21 | 298 | 0.0 | 0.0 | 0.00 | 1.19 | 0.00 | 95 | 1012.8 |
| 20260906081204 | 21 | 298 | 0.0 | 0.0 | 0.00 | 1.19 | 0.00 | 95 | 1012.7 |
| 20260906080205 | 21 | 298 | 0.0 | 0.0 | 0.00 | 1.19 | 0.00 | 95 | 1012.8 |
| 20260906074204 | 21 | 298 | 0.0 | 0.0 | 0.00 | 1.19 | 0.00 | 95 | 1012.7 |
| 20260906073204 | 21 | 298 | 0.0 | 0.0 | 0.00 | 1.19 | 0.00 | 95 | 1012.6 |
| 20260906071204 | 22 | 298 | 0.0 | 0.0 | 0.00 | 1.19 | 0.00 | 95 | 1012.6 |
| 20260906070204 | 22 | 298 | 0.0 | 0.0 | 0.00 | 1.19 | 0.00 | 95 | 1012.6 |
| 20260906063205 | 22 | 298 | 0.0 | 0.0 | 0.00 | 1.19 | 0.00 | 94 | 1012.8 |
| 20260906061204 | 22 | 298 | 0.0 | 0.0 | 0.00 | 1.19 | 0.00 | 94 | 1013.1 |
| 20260906060204 | 22 | 298 | 0.0 | 0.0 | 0.00 | 1.19 | 0.00 | 94 | 1013.1 |
| 20260906054204 | 22 | 298 | 0.0 | 0.0 | 0.00 | 1.19 | 0.00 | 94 | 1013.1 |
| 20260906050203 | 22 | 298 | 0.0 | 0.0 | 0.00 | 1.19 | 0.00 | 94 | 1013.5 |
| 20260906044204 | 22 | 298 | 0.0 | 0.0 | 0.00 | 1.19 | 0.00 | 94 | 1013.5 |
| 20260906041203 | 22 | 298 | 0.0 | 0.0 | 0.00 | 1.19 | 0.00 | 94 | 1013.4 |
| 20260906034205 | 22 | 298 | 0.0 | 0.0 | 0.00 | 1.19 | 1.19 | 94 | 1013.6 |
| 20260906031205 | 22 | 298 | 0.0 | 0.0 | 0.00 | 1.19 | 1.19 | 93 | 1013.9 |
| 20260906030204 | 22 | 298 | 0.0 | 0.0 | 0.00 | 1.19 | 1.19 | 93 | 1013.8 |
| 20260906024203 | 22 | 298 | 0.0 | 0.0 | 0.00 | 1.19 | 1.19 | 93 | 1014.0 |
| 20260906023204 | 23 | 298 | 0.0 | 0.0 | 0.00 | 1.19 | 1.19 | 93 | 1014.1 |
| 20260906021204 | 23 | 298 | 0.0 | 0.0 | 0.00 | 1.19 | 1.19 | 93 | 1014.3 |
| 20260906020204 | 23 | 298 | 0.0 | 0.0 | 0.00 | 1.19 | 1.19 | 93 | 1014.2 |
| 20260906014204 | 23 | 298 | 0.0 | 0.0 | 0.00 | 1.19 | 1.19 | 93 | 1014.1 |
| 20260906013204 | 23 | 298 | 0.0 | 0.0 | 0.00 | 1.19 | 1.19 | 93 | 1013.9 |
| 20260906011204 | 23 | 298 | 0.0 | 0.0 | 0.00 | 1.19 | 1.19 | 93 | 1013.7 |
| 20260906010204 | 23 | 298 | 0.0 | 0.0 | 0.00 | 1.19 | 1.19 | 93 | 1013.2 |
| 20260906004204 | 23 | 298 | 0.0 | 0.0 | 0.00 | 1.19 | 1.19 | 92 | 1013.2 |
| 20260906003204 | 23 | 298 | 0.0 | 0.0 | 0.00 | 1.19 | 1.19 | 92 | 1013.5 |
| 20260906001204 | 23 | 298 | 0.0 | 0.0 | 0.05 | 1.19 | 1.19 | 92 | 1012.8 |
| 20260906000204 | 23 | 298 | 0.0 | 0.0 | 0.08 | 1.19 | 1.19 | 92 | 1012.4 |
| 20260905234204 | 23 | 298 | 0.0 | 0.0 | 0.99 | 1.19 | 1.19 | 90 | 1011.2 |
| 20260905233204 | 23 | 298 | 0.0 | 0.0 | 1.19 | 1.19 | 1.19 | 89 | 1010.2 |
| 20260905231204 | 24 | 298 | 0.0 | 3.2 | 1.14 | 1.14 | 1.14 | 85 | 1012.6 |
| 20260905230204 | 25 | 298 | 0.0 | 8.0 | 1.12 | 1.12 | 1.12 | 81 | 1013.5 |
| 20260905224204 | 31 | 218 | 1.6 | 27.4 | 0.20 | 0.20 | 0.20 | 62 | 1013.1 |
| 20260905223204 | 34 | 263 | 3.2 | 9.7 | 0.00 | 0.00 | 0.00 | 45 | 1012.4 |
| 20260905221203 | 37 | 78 | 0.0 | 0.0 | 0.00 | 0.00 | 0.00 | 43 | 1011.2 |
| 20260905220204 | 37 | 78 | 0.0 | 0.0 | 0.00 | 0.00 | 0.00 | 42 | 1011.0 |
| 20260905214203 | 38 | 78 | 0.0 | 0.0 | 0.00 | 0.00 | 0.00 | 40 | 1010.9 |
| 20260905213203 | 37 | 78 | 0.0 | 1.6 | 0.00 | 0.00 | 0.00 | 42 | 1010.8 |
| 20260905211204 | 38 | 78 | 0.0 | 0.0 | 0.00 | 0.00 | 0.00 | 41 | 1011.0 |
| 20260905204203 | 37 | 104 | 1.6 | 3.2 | 0.00 | 0.00 | 0.00 | 44 | 1011.6 |
| 20260905203203 | 37 | 103 | 0.0 | 1.6 | 0.00 | 0.00 | 0.00 | 42 | 1011.6 |
| 20260905201204 | 37 | 103 | 0.0 | 0.0 | 0.00 | 0.00 | 0.00 | 42 | 1012.0 |
| 20260905194203 | 38 | 103 | 0.0 | 4.8 | 0.00 | 0.00 | 0.00 | 39 | 1012.1 |
| 20260905193204 | 38 | 87 | 0.0 | 3.2 | 0.00 | 0.00 | 0.00 | 42 | 1012.2 |
| 20260905191204 | 40 | 89 | 0.0 | 1.6 | 0.00 | 0.00 | 0.00 | 39 | 1012.4 |
| 20260905190203 | 39 | 87 | 0.0 | 3.2 | 0.00 | 0.00 | 0.00 | 42 | 1012.5 |
| 20260905184204 | 37 | 46 | 0.0 | 1.6 | 0.00 | 0.00 | 0.00 | 42 | 1012.8 |
| 20260905183204 | 38 | 42 | 0.0 | 1.6 | 0.00 | 0.00 | 0.00 | 42 | 1013.0 |
| 20260905180204 | 37 | 336 | 0.0 | 4.8 | 0.00 | 0.00 | 0.00 | 45 | 1013.3 |
| 20260905174204 | 37 | 274 | 0.0 | 3.2 | 0.00 | 0.00 | 0.00 | 43 | 1013.6 |
| 20260905173204 | 37 | 75 | 0.0 | 4.8 | 0.00 | 0.00 | 0.00 | 44 | 1013.7 |
| 20260905171204 | 37 | 68 | 0.0 | 3.2 | 0.00 | 0.00 | 0.00 | 48 | 1013.8 |
| 20260905164204 | 36 | 121 | 0.0 | 8.0 | 0.00 | 0.00 | 0.00 | 46 | 1014.3 |
| 20260905161203 | 36 | 275 | 0.0 | 8.0 | 0.00 | 0.00 | 0.00 | 50 | 1014.7 |
| 20260905160204 | 36 | 74 | 0.0 | 3.2 | 0.00 | 0.00 | 0.00 | 51 | 1014.7 |
| 20260905151203 | 32 | 49 | 0.0 | 4.8 | 0.00 | 0.00 | 0.00 | 61 | 1015.0 |
| 20260905144204 | 29 | 78 | 0.0 | 4.8 | 0.00 | 0.00 | 0.00 | 68 | 1015.2 |
| 20260905143203 | 28 | 80 | 0.0 | 3.2 | 0.00 | 0.00 | 0.00 | 71 | 1015.2 |
| 20260905140203 | 26 | 226 | 0.0 | 0.0 | 0.00 | 0.00 | 0.00 | 81 | 1015.2 |
| 20260905133204 | 25 | 226 | 0.0 | 0.0 | 0.00 | 0.00 | 0.00 | 87 | 1015.4 |